[[{"header":{"parameterUnit":"m.s-1","parameterCategory":2,"la1":30.2991,"la2":30.254,"lo1":-89.0895,"lo2":-89.0444,"dy":0.0017,"dx":0.0017,"nx":28,"ny":28,"refTime":"2024-09-24T21:00:00:Z","depth":"0","parameterNumber":2,"parameterNumberName":"U-component_of_CURRENTS"},"data":[0,0,0,0,0,0,0,0,0,0,0,0,0,0,0,0,0,0,0,0,0,0,0,0,0,0,0,0,0,0,0,0,0,0,0,0,0,0,0,0,0,0,0,0,0,0,0,0,0,0,0,0,0,0,0,0,0,0,0.2037,0.2038,0,0.207,0.2071,0.2071,0.207,0.207,0.207,0.2069,0.2053,0.2053,0.2053,0,0,0,0,0,0,0,0,0,0,0,0,0,0.1967,0.1968,0.2037,0.2038,0.2038,0.207,0.2071,0.2071,0.207,0.207,0.207,0.2069,0.2054,0.2053,0.2053,0,0,0,0,0,0,0,0,0,0,0,0,0,0.1996,0.1969,0.2037,0.2044,0.2045,0.207,0.2071,0.2071,0.207,0.207,0.2069,0.2069,0.2054,0.2053,0.2053,0.2058,0,0,0.2052,0.2052,0,0,0,0,0,0,0,0,0.1995,0.1999,0.2042,0.2043,0.2045,0.2068,0.204,0.2065,0.207,0.2058,0.2069,0.2069,0.2056,0.2055,0.2059,0.2057,0.2056,0.2052,0.2052,0.2052,0.2052,0,0,0,0,0,0,0,0.1993,0.1997,0.2048,0.2043,0.2045,0.2043,0.2047,0.2045,0.2055,0.2059,0.206,0.2067,0.2056,0.206,0.2059,0.2056,0.2052,0.2052,0.2052,0.2051,0.2075,0.2076,0,0,0,0,0,0,0.1994,0.1995,0.2047,0.2049,0.2021,0.2045,0.2049,0.2059,0.2057,0.2057,0.2068,0.2067,0.206,0.2059,0.2058,0.208,0.2052,0.2051,0.2051,0.2074,0.2075,0.2076,0,0,0,0,0,0,0.1993,0.1999,0.2046,0.2025,0.2031,0.2047,0.2058,0.206,0.2068,0.2064,0.2063,0.2074,0.206,0.2059,0.2066,0.2079,0.2051,0.2051,0.2074,0.2075,0.2076,0.2113,0,0,0,0,0,0,0.1991,0.1998,0.2004,0.2025,0.2032,0.2065,0.2058,0.2061,0.2074,0.2074,0.2069,0.2067,0.206,0.2067,0.2066,0.2078,0.2051,0.2072,0.2074,0.2076,0.2111,0.2115,0.2119,0,0,0,0,0,0.1988,0.1998,0.2004,0.2011,0.2041,0.2066,0.207,0.2078,0.2074,0.2082,0.2082,0.2068,0.2076,0.2067,0.2066,0.2078,0.2072,0.2074,0.2075,0.2109,0.2115,0.2119,0,0,0,0,0,0,0.1966,0.2,0.2007,0.2025,0.2047,0.2067,0.2074,0.2082,0.2089,0.2086,0.2078,0.2077,0.209,0.208,0.2071,0.209,0.2071,0.2073,0.2097,0.2103,0.2107,0.2112,0.205,0,0,0,0,0,0.1967,0.1984,0.2014,0.2028,0.2039,0.2058,0.2068,0.2078,0.2089,0.2092,0.2091,0.2091,0.2097,0.2096,0.2098,0.2107,0.2115,0.2114,0.2119,0.2122,0.2126,0.215,0.2156,0.2083,0.2082,0.2082,0,0,0.196,0.1982,0.199,0.2025,0.2039,0.2062,0.2062,0.2083,0.2101,0.2088,0.2105,0.2107,0.2104,0.2118,0.2122,0.2109,0.2152,0.2125,0.2128,0.213,0.2152,0.216,0.2166,0.2084,0.2084,0.2083,0,0,0.196,0.1977,0.1994,0.2017,0.205,0.2064,0.2073,0.2099,0.2109,0.2127,0.2127,0.214,0.214,0.2149,0.2151,0.218,0.2177,0.2178,0.2199,0.2222,0.2229,0.2234,0.2272,0.228,0.2176,0.2176,0.2176,0,0.1949,0.198,0.2002,0.2027,0.2047,0.2067,0.2089,0.2106,0.2132,0.2145,0.2134,0.216,0.2156,0.2184,0.2194,0.219,0.2206,0.2179,0.2228,0.2234,0.2239,0.2276,0.2285,0.2178,0.2178,0.2178,0.2178,0,0.1968,0.1993,0.2004,0.2045,0.2067,0.209,0.212,0.214,0.215,0.2168,0.2197,0.22,0.2216,0.2219,0.2213,0.2251,0.2253,0.2234,0.2215,0.2249,0.2285,0.2294,0.2181,0.218,0.218,0.2179,0,0,0.1943,0.2005,0.2009,0.2038,0.208,0.2104,0.2132,0.217,0.22,0.2213,0.225,0.2259,0.2266,0.2269,0.2271,0.2288,0.2342,0.2276,0.2277,0.2314,0.2409,0.2468,0.2483,0.233,0.2332,0.2333,0.2426,0,0.1951,0.2003,0.2029,0.2075,0.2107,0.2135,0.2167,0.2204,0.2227,0.2269,0.2279,0.2314,0.2284,0.2304,0.2314,0.2341,0.2364,0.232,0.237,0.2372,0.2421,0.2495,0.252,0.261,0.2435,0.2436,0.2437,0,0.1964,0.2001,0.2049,0.2113,0.2127,0.2155,0.2215,0.2248,0.2302,0.2323,0.2349,0.2364,0.2403,0.237,0.2419,0.2393,0.2404,0.2415,0.2419,0.2466,0.2448,0.2545,0.2632,0.2639,0.245,0.2449,0.2448,0,0.1957,0.2016,0.2056,0.2078,0.2148,0.2173,0.2208,0.2264,0.2306,0.2368,0.241,0.2436,0.2481,0.2481,0.2506,0.2466,0.2569,0.2514,0.2579,0.2583,0.2611,0.2616,0.271,0.255,0.255,0.255,0.2549,0,0.1967,0.2001,0.2059,0.2087,0.2139,0.2184,0.2242,0.2283,0.2354,0.2418,0.2442,0.2511,0.2511,0.2566,0.255,0.2618,0.2605,0.2611,0.262,0.2628,0.2633,0.2643,0.2625,0.2553,0.2552,0.2552,0.2551,0,0.1967,0.2003,0.2055,0.2121,0.2142,0.2183,0.2263,0.2306,0.238,0.2467,0.2497,0.2591,0.2677,0.2688,0.2729,0.2708,0.2713,0.2762,0.2785,0.2796,0.2841,0.2824,0.2793,0.2675,0.2843,0.2845,0.2847,0,0.1972,0.2,0.2071,0.2095,0.2126,0.2186,0.2226,0.2308,0.2365,0.2521,0.2573,0.27,0.2795,0.2902,0.2912,0.2938,0.282,0.2953,0.2874,0.2884,0.287,0.272,0.2608,0.2928,0.2931,0.2933,0.2934,0,0.1974,0.1999,0.2038,0.2089,0.213,0.2185,0.2257,0.2304,0.2415,0.2516,0.2672,0.2772,0.2936,0.3018,0.3077,0.3069,0.2887,0.2994,0.2993,0.2955,0.2807,0.2685,0.2831,0.2951,0.295,0.2948,0.2947,0.2947,0.1958,0.1979,0.202,0.2072,0.2116,0.2166,0.2185,0.2284,0.2386,0.252,0.2681,0.2838,0.3061,0.3175,0.3148,0.3184,0.3026,0.3132,0.3116,0.2964,0.2837,0.304,0.3173,0.3173,0.3172,0.3172,0.3172,0,0.1923,0.1951,0.1996,0.2039,0.2062,0.2111,0.2186,0.2197,0.2289,0.2487,0.2634,0.2947,0.3121,0.324,0.3386,0.3329,0.3104,0.3266,0.3064,0.2939,0.3153,0.3148,0.3296,0.3296,0.3296,0.3296,0.3296,0.3296,0.1896,0.1913,0.1947,0.1966,0.1997,0.1983,0.2005,0.2059,0.2177,0.2383,0.2585,0.2777,0.3186,0.3578,0.3627,0.3514,0.32,0.317,0.3012,0.3234,0.3218,0.3203,0.3195,0.3351,0.3351,0.2698,0.2694,0.2691]},{"header":{"parameterUnit":"m.s-1","parameterCategory":2,"la1":30.2991,"la2":30.254,"lo1":-89.0895,"lo2":-89.0444,"dy":0.0017,"dx":0.0017,"nx":28,"ny":28,"refTime":"2024-09-24T21:00:00:Z","depth":"0","parameterNumber":3,"parameterNumberName":"V-component_of_CURRENTS"},"data":[0,0,0,0,0,0,0,0,0,0,0,0,0,0,0,0,0,0,0,0,0,0,0,0,0,0,0,0,0,0,0,0,0,0,0,0,0,0,0,0,0,0,0,0,0,0,0,0,0,0,0,0,0,0,0,0,0,0,-0.0478,-0.0479,0,-0.0524,-0.0524,-0.0525,-0.0558,-0.0558,-0.0559,-0.0559,-0.0606,-0.0607,-0.0608,0,0,0,0,0,0,0,0,0,0,0,0,0,-0.0461,-0.0461,-0.0478,-0.0479,-0.0479,-0.0524,-0.0524,-0.0525,-0.0558,-0.0558,-0.0559,-0.0559,-0.0606,-0.0607,-0.0608,0,0,0,0,0,0,0,0,0,0,0,0,0,-0.0484,-0.0461,-0.0478,-0.0501,-0.0503,-0.0524,-0.0524,-0.0525,-0.0558,-0.0558,-0.0559,-0.0559,-0.0605,-0.0607,-0.0608,-0.061,0,0,-0.0613,-0.0613,0,0,0,0,0,0,0,0,-0.0483,-0.0485,-0.0497,-0.0499,-0.0502,-0.0535,-0.0536,-0.0553,-0.0558,-0.0537,-0.0559,-0.0559,-0.0582,-0.0585,-0.0593,-0.0612,-0.0614,-0.0613,-0.0614,-0.0614,-0.0615,0,0,0,0,0,0,0,-0.0481,-0.0483,-0.0497,-0.0498,-0.0501,-0.0523,-0.0526,-0.0539,-0.0557,-0.0539,-0.0542,-0.0546,-0.0584,-0.0592,-0.0595,-0.0615,-0.0613,-0.0614,-0.0615,-0.0616,-0.064,-0.064,0,0,0,0,0,0,-0.0472,-0.0481,-0.0495,-0.0498,-0.0493,-0.0523,-0.0527,-0.0525,-0.0557,-0.0562,-0.0546,-0.0548,-0.0589,-0.0593,-0.0597,-0.0589,-0.0614,-0.0616,-0.0617,-0.0641,-0.064,-0.064,0,0,0,0,0,0,-0.0472,-0.0473,-0.0493,-0.0491,-0.0495,-0.0523,-0.052,-0.0525,-0.0532,-0.0562,-0.0568,-0.0548,-0.059,-0.0594,-0.0606,-0.0592,-0.0617,-0.0618,-0.0641,-0.0641,-0.064,-0.0582,0,0,0,0,0,0,-0.0471,-0.0472,-0.0467,-0.049,-0.0495,-0.0494,-0.052,-0.0526,-0.0535,-0.0537,-0.0565,-0.057,-0.059,-0.0603,-0.0607,-0.0594,-0.0619,-0.0641,-0.0641,-0.064,-0.0584,-0.0579,-0.0576,0,0,0,0,0,-0.047,-0.0454,-0.0466,-0.0468,-0.0487,-0.0494,-0.0498,-0.052,-0.0534,-0.0529,-0.0554,-0.0569,-0.0603,-0.0604,-0.0609,-0.0596,-0.0641,-0.0641,-0.064,-0.0586,-0.058,-0.0576,0,0,0,0,0,0,-0.0441,-0.0457,-0.0471,-0.046,-0.0474,-0.0499,-0.0497,-0.0515,-0.0531,-0.0535,-0.0566,-0.0572,-0.0578,-0.0596,-0.0597,-0.0603,-0.0625,-0.0625,-0.0582,-0.0577,-0.0573,-0.0557,-0.062,0,0,0,0,0,-0.0433,-0.0428,-0.0449,-0.044,-0.0445,-0.0472,-0.0478,-0.0493,-0.0511,-0.0519,-0.054,-0.0563,-0.0579,-0.0585,-0.0603,-0.0603,-0.0629,-0.06,-0.0595,-0.0592,-0.0583,-0.0613,-0.0611,-0.0638,-0.0638,-0.0638,0,0,-0.042,-0.0428,-0.0426,-0.0435,-0.0448,-0.0443,-0.0476,-0.0479,-0.0475,-0.0521,-0.052,-0.0549,-0.0577,-0.058,-0.0584,-0.0593,-0.0598,-0.0591,-0.0587,-0.058,-0.0612,-0.061,-0.0607,-0.0638,-0.0638,-0.0638,0,0,-0.0388,-0.0397,-0.0383,-0.039,-0.0405,-0.042,-0.0418,-0.044,-0.0449,-0.0456,-0.0489,-0.0507,-0.053,-0.0547,-0.0559,-0.0542,-0.0577,-0.055,-0.051,-0.054,-0.0538,-0.0536,-0.0566,-0.0567,-0.0544,-0.0544,-0.0544,0,-0.0373,-0.036,-0.038,-0.0369,-0.037,-0.0404,-0.0389,-0.04,-0.0424,-0.0429,-0.0447,-0.0488,-0.0513,-0.0519,-0.0514,-0.053,-0.0556,-0.0525,-0.0533,-0.0532,-0.0532,-0.0563,-0.0565,-0.0541,-0.0541,-0.0542,-0.0542,0,-0.0334,-0.0325,-0.0315,-0.0313,-0.0314,-0.0307,-0.0325,-0.0328,-0.0349,-0.0368,-0.0383,-0.0421,-0.0446,-0.0456,-0.0479,-0.0483,-0.0506,-0.0526,-0.0543,-0.0525,-0.056,-0.0563,-0.0537,-0.0538,-0.0539,-0.054,0,0,-0.03,-0.0289,-0.0287,-0.0279,-0.0286,-0.0283,-0.0271,-0.0276,-0.0274,-0.0301,-0.0303,-0.0334,-0.0366,-0.0382,-0.0416,-0.0438,-0.0457,-0.0474,-0.0477,-0.0497,-0.0525,-0.0564,-0.0572,-0.0482,-0.0482,-0.0482,-0.0551,0,-0.0267,-0.0236,-0.0237,-0.0208,-0.0198,-0.0215,-0.0201,-0.0211,-0.0231,-0.0241,-0.0281,-0.03,-0.0335,-0.035,-0.0376,-0.0439,-0.0464,-0.0437,-0.0545,-0.0548,-0.0579,-0.0576,-0.0609,-0.0675,-0.0555,-0.0556,-0.0556,0,-0.0237,-0.0219,-0.0185,-0.0165,-0.016,-0.0146,-0.014,-0.0133,-0.0154,-0.0172,-0.0198,-0.0237,-0.0268,-0.0306,-0.0392,-0.0374,-0.044,-0.0491,-0.0495,-0.0552,-0.0593,-0.0675,-0.0686,-0.0881,-0.0562,-0.0561,-0.0561,0,-0.0223,-0.0187,-0.016,-0.0153,-0.0132,-0.0116,-0.0106,-0.0115,-0.0105,-0.0132,-0.0137,-0.0188,-0.0216,-0.0294,-0.0393,-0.0396,-0.0496,-0.0518,-0.0613,-0.0617,-0.0676,-0.0685,-0.0883,-0.0579,-0.0579,-0.0579,-0.0579,0,-0.0201,-0.0181,-0.015,-0.0136,-0.0093,-0.0094,-0.0063,-0.0061,-0.0063,-0.0041,-0.0101,-0.01,-0.0216,-0.0284,-0.0378,-0.0505,-0.0488,-0.0605,-0.0637,-0.0658,-0.0663,-0.086,-0.0967,-0.0582,-0.0581,-0.0581,-0.058,0,-0.0202,-0.0185,-0.0145,-0.0104,-0.0087,-0.006,-0.0019,0.0003,-0.0011,0.0016,0.0014,-0.0043,-0.013,-0.0253,-0.0388,-0.0489,-0.0733,-0.0656,-0.0672,-0.0705,-0.0974,-0.1074,-0.1313,-0.1417,-0.0772,-0.0774,-0.0775,0,-0.0204,-0.0183,-0.0117,-0.0081,-0.006,-0.002,0.0018,0.003,0.0062,0.0063,0.0089,0.0007,-0.0027,-0.0251,-0.0447,-0.063,-0.0798,-0.0796,-0.0807,-0.0998,-0.1134,-0.1214,-0.1289,-0.0866,-0.0867,-0.0869,-0.087,0,-0.0194,-0.0168,-0.0129,-0.0051,0.0001,0.0057,0.0113,0.0158,0.0183,0.0203,0.0228,0.0197,-0.0028,-0.0228,-0.0505,-0.065,-0.0974,-0.0832,-0.1031,-0.1225,-0.1326,-0.1437,-0.0813,-0.0883,-0.0882,-0.0881,-0.088,-0.088,-0.0179,-0.0145,-0.0082,-0.0003,0.0056,0.0144,0.0214,0.0274,0.0345,0.0414,0.0356,0.0336,-0.001,-0.039,-0.0632,-0.1105,-0.1084,-0.1233,-0.1339,-0.1401,-0.1515,-0.0918,-0.1023,-0.1022,-0.1022,-0.1021,-0.1021,0,-0.0136,-0.0094,-0.0031,0.007,0.0153,0.0175,0.029,0.0367,0.0482,0.0513,0.0529,0.0319,-0.0109,-0.0549,-0.1155,-0.1512,-0.1668,-0.1735,-0.1868,-0.1918,-0.139,-0.1407,-0.1598,-0.1598,-0.1597,-0.1597,-0.1597,-0.1597,-0.0113,-0.0034,0.0007,0.0151,0.0221,0.0348,0.0434,0.0531,0.0583,0.0617,0.0581,0.0511,0.0108,-0.0979,-0.1798,-0.2003,-0.2301,-0.2379,-0.2505,-0.2156,-0.2117,-0.208,-0.2122,-0.246,-0.2461,-0.2995,-0.3001,-0.3005]}],[{"header":{"parameterUnit":"m.s-1","parameterCategory":2,"la1":30.2991,"la2":30.254,"lo1":-89.0895,"lo2":-89.0444,"dy":0.0017,"dx":0.0017,"nx":28,"ny":28,"refTime":"2024-09-24T21:00:00:Z","depth":"2","parameterNumber":2,"parameterNumberName":"U-component_of_CURRENTS"},"data":[0,0,0,0,0,0,0,0,0,0,0,0,0,0,0,0,0,0,0,0,0,0,0,0,0,0,0,0,0,0,0,0,0,0,0,0,0,0,0,0,0,0,0,0,0,0,0,0,0,0,0,0,0,0,0,0,0,0,0.203,0.203,0,0.2062,0.2063,0.2063,0.2063,0.2062,0.2062,0.2062,0.2047,0.2047,0.2047,0,0,0,0,0,0,0,0,0,0,0,0,0,0.1961,0.1962,0.203,0.203,0.2031,0.2062,0.2063,0.2063,0.2063,0.2062,0.2062,0.2062,0.2047,0.2047,0.2047,0,0,0,0,0,0,0,0,0,0,0,0,0,0.199,0.1962,0.203,0.2037,0.2038,0.2062,0.2063,0.2063,0.2063,0.2062,0.2062,0.2062,0.2047,0.2047,0.2047,0.2051,0,0,0.2046,0.2045,0,0,0,0,0,0,0,0,0.1988,0.1992,0.2035,0.2036,0.2037,0.206,0.2033,0.2057,0.2063,0.2051,0.2062,0.2062,0.2049,0.2048,0.2052,0.205,0.2049,0.2046,0.2045,0.2045,0.2045,0,0,0,0,0,0,0,0.1986,0.199,0.204,0.2036,0.2037,0.2036,0.2039,0.2038,0.2048,0.2052,0.2052,0.206,0.2049,0.2053,0.2052,0.2049,0.2046,0.2045,0.2045,0.2045,0.2069,0.207,0,0,0,0,0,0,0.1988,0.1989,0.2039,0.2041,0.2014,0.2038,0.2041,0.2051,0.2049,0.205,0.206,0.206,0.2053,0.2052,0.2051,0.2074,0.2045,0.2045,0.2045,0.2068,0.2069,0.207,0,0,0,0,0,0,0.1986,0.1992,0.2038,0.2017,0.2023,0.2039,0.205,0.2052,0.206,0.2057,0.2056,0.2067,0.2053,0.2052,0.206,0.2072,0.2045,0.2045,0.2067,0.2069,0.207,0.2107,0,0,0,0,0,0,0.1984,0.1991,0.1998,0.2018,0.2025,0.2058,0.2051,0.2053,0.2066,0.2066,0.2062,0.2061,0.2053,0.206,0.2059,0.2071,0.2044,0.2066,0.2068,0.2069,0.2105,0.2109,0.2113,0,0,0,0,0,0.1981,0.1991,0.1998,0.2004,0.2034,0.2059,0.2062,0.207,0.2067,0.2075,0.2075,0.2061,0.2069,0.2061,0.2059,0.2072,0.2066,0.2068,0.2069,0.2103,0.2108,0.2113,0,0,0,0,0,0,0.196,0.1993,0.2,0.2018,0.204,0.2059,0.2066,0.2074,0.2081,0.2079,0.2071,0.207,0.2083,0.2073,0.2064,0.2084,0.2065,0.2067,0.2091,0.2096,0.2101,0.2105,0.2044,0,0,0,0,0,0.1961,0.1978,0.2007,0.2021,0.2032,0.2051,0.2061,0.2071,0.2082,0.2085,0.2084,0.2084,0.209,0.2089,0.2092,0.2101,0.2109,0.2108,0.2112,0.2116,0.212,0.2143,0.215,0.2076,0.2076,0.2076,0,0,0.1954,0.1976,0.1984,0.2018,0.2033,0.2054,0.2055,0.2076,0.2094,0.2081,0.2098,0.21,0.2097,0.2111,0.2115,0.2103,0.2145,0.2118,0.2122,0.2123,0.2146,0.2153,0.2159,0.2078,0.2077,0.2077,0,0,0.1955,0.1972,0.1989,0.2011,0.2043,0.2057,0.2066,0.2092,0.2102,0.212,0.212,0.2133,0.2133,0.2143,0.2144,0.2173,0.217,0.2171,0.2193,0.2216,0.2222,0.2227,0.2264,0.2273,0.217,0.217,0.217,0,0.1944,0.1975,0.1996,0.2021,0.204,0.206,0.2083,0.2099,0.2124,0.2138,0.2128,0.2153,0.215,0.2177,0.2188,0.2183,0.2199,0.2173,0.2222,0.2227,0.2232,0.2268,0.2277,0.2172,0.2172,0.2171,0.2171,0,0.1963,0.1988,0.1999,0.2039,0.206,0.2083,0.2113,0.2133,0.2143,0.2161,0.219,0.2194,0.2209,0.2212,0.2206,0.2244,0.2246,0.2228,0.2208,0.2242,0.2278,0.2287,0.2175,0.2174,0.2173,0.2173,0,0,0.1938,0.1999,0.2004,0.2032,0.2073,0.2098,0.2125,0.2163,0.2193,0.2206,0.2243,0.2252,0.2259,0.2262,0.2264,0.2281,0.2335,0.227,0.227,0.2307,0.24,0.2457,0.2471,0.2323,0.2324,0.2325,0.2418,0,0.1946,0.1998,0.2023,0.2069,0.21,0.2128,0.216,0.2196,0.222,0.2261,0.2271,0.2307,0.2277,0.2298,0.2307,0.2333,0.2356,0.2312,0.2362,0.2364,0.241,0.2483,0.2241,0.2308,0.2426,0.2427,0.2428,0,0.1959,0.1996,0.2043,0.2107,0.2122,0.2149,0.2209,0.2241,0.2295,0.2317,0.2342,0.2357,0.2395,0.2363,0.2411,0.2385,0.2396,0.2407,0.241,0.2454,0.2436,0.229,0.2319,0.2443,0.2441,0.244,0.244,0,0.1953,0.2011,0.2052,0.2073,0.2143,0.2168,0.2202,0.2258,0.23,0.2361,0.2404,0.2429,0.2474,0.2474,0.2498,0.2459,0.2559,0.2505,0.2566,0.257,0.2371,0.2357,0.254,0.254,0.254,0.254,0.254,0,0.1964,0.1998,0.2056,0.2084,0.2136,0.218,0.2238,0.2279,0.2349,0.2413,0.2437,0.2505,0.2505,0.2558,0.2541,0.2606,0.2595,0.2597,0.2607,0.2382,0.2368,0.2478,0.247,0.2543,0.2543,0.2542,0.2541,0,0.1965,0.2,0.2052,0.2119,0.214,0.218,0.226,0.2304,0.2377,0.2464,0.2493,0.2587,0.267,0.2679,0.2719,0.2696,0.2726,0.2746,0.2503,0.2484,0.2705,0.2697,0.2818,0.2821,0.2823,0.2825,0.2827,0,0.1971,0.1999,0.2069,0.2094,0.2125,0.2185,0.2225,0.2306,0.2363,0.2519,0.2569,0.2694,0.2775,0.2878,0.2833,0.2839,0.2844,0.2654,0.2539,0.2742,0.2738,0.2726,0.2715,0.2281,0.2278,0.2275,0.2273,0,0.1974,0.1999,0.2038,0.2088,0.213,0.2184,0.2256,0.2303,0.2413,0.25,0.2655,0.2741,0.2853,0.2773,0.2803,0.2761,0.263,0.2616,0.2873,0.2279,0.2251,0.2243,0.2246,0.2253,0.2255,0.2256,0.2257,0.2258,0.1959,0.198,0.2021,0.2073,0.2116,0.2165,0.2184,0.2232,0.2314,0.236,0.2566,0.2572,0.2628,0.2543,0.2505,0.2459,0.2628,0.2479,0.2478,0.2481,0.2434,0.2415,0.2439,0.2442,0.2444,0.2446,0.2449,0,0.191,0.1952,0.1998,0.204,0.2043,0.2111,0.2185,0.214,0.2148,0.22,0.2259,0.2121,0.2098,0.2154,0.2064,0.2128,0.2006,0.2049,0.1837,0.1863,0.1885,0.1797,0.1638,0.1635,0.1632,0.163,0,0,0.1881,0.189,0.1923,0.1929,0.1973,0.1931,0.1951,0.1897,0.1886,0.1811,0.1771,0.1848,0.2048,0.1743,0.1776,0.1695,0.1738,0.1629,0.2283,0.2055,0.2072,0.2154,0.2055,0,0,0,0,0]},{"header":{"parameterUnit":"m.s-1","parameterCategory":2,"la1":30.2991,"la2":30.254,"lo1":-89.0895,"lo2":-89.0444,"dy":0.0017,"dx":0.0017,"nx":28,"ny":28,"refTime":"2024-09-24T21:00:00:Z","depth":"2","parameterNumber":3,"parameterNumberName":"V-component_of_CURRENTS"},"data":[0,0,0,0,0,0,0,0,0,0,0,0,0,0,0,0,0,0,0,0,0,0,0,0,0,0,0,0,0,0,0,0,0,0,0,0,0,0,0,0,0,0,0,0,0,0,0,0,0,0,0,0,0,0,0,0,0,0,-0.0413,-0.0414,0,-0.0458,-0.0458,-0.0459,-0.0493,-0.0493,-0.0493,-0.0494,-0.0541,-0.0542,-0.0543,0,0,0,0,0,0,0,0,0,0,0,0,0,-0.0397,-0.0397,-0.0413,-0.0414,-0.0414,-0.0458,-0.0458,-0.0459,-0.0493,-0.0493,-0.0493,-0.0494,-0.054,-0.0541,-0.0543,0,0,0,0,0,0,0,0,0,0,0,0,0,-0.0419,-0.0397,-0.0413,-0.0436,-0.0439,-0.0458,-0.0458,-0.0459,-0.0493,-0.0493,-0.0493,-0.0494,-0.054,-0.0541,-0.0543,-0.0543,0,0,-0.0547,-0.0548,0,0,0,0,0,0,0,0,-0.0418,-0.042,-0.0432,-0.0435,-0.0438,-0.047,-0.047,-0.0487,-0.0492,-0.0472,-0.0494,-0.0494,-0.0517,-0.052,-0.0528,-0.0545,-0.0547,-0.0547,-0.0548,-0.0549,-0.0549,0,0,0,0,0,0,0,-0.0416,-0.0418,-0.0431,-0.0433,-0.0436,-0.0458,-0.0461,-0.0474,-0.0492,-0.0474,-0.0477,-0.0481,-0.0518,-0.0526,-0.0529,-0.0548,-0.0547,-0.0549,-0.055,-0.055,-0.0574,-0.0574,0,0,0,0,0,0,-0.0408,-0.0416,-0.043,-0.0432,-0.0428,-0.0458,-0.0462,-0.0459,-0.0492,-0.0497,-0.0481,-0.0483,-0.0524,-0.0527,-0.0531,-0.0525,-0.0549,-0.055,-0.0551,-0.0574,-0.0574,-0.0574,0,0,0,0,0,0,-0.0407,-0.0408,-0.0428,-0.0426,-0.043,-0.0457,-0.0455,-0.046,-0.0468,-0.0497,-0.0502,-0.0483,-0.0524,-0.0529,-0.054,-0.0527,-0.0551,-0.0552,-0.0575,-0.0574,-0.0574,-0.0518,0,0,0,0,0,0,-0.0406,-0.0407,-0.0403,-0.0425,-0.043,-0.0429,-0.0455,-0.046,-0.047,-0.0473,-0.05,-0.0505,-0.0525,-0.0538,-0.0542,-0.053,-0.0553,-0.0575,-0.0575,-0.0574,-0.052,-0.0515,-0.0512,0,0,0,0,0,-0.0405,-0.039,-0.0402,-0.0404,-0.0422,-0.0428,-0.0432,-0.0454,-0.0469,-0.0465,-0.0489,-0.0505,-0.0538,-0.0539,-0.0543,-0.0531,-0.0575,-0.0575,-0.0574,-0.0522,-0.0516,-0.0512,0,0,0,0,0,0,-0.0377,-0.0393,-0.0407,-0.0397,-0.041,-0.0434,-0.0432,-0.045,-0.0466,-0.047,-0.0501,-0.0507,-0.0513,-0.0531,-0.0531,-0.0538,-0.0559,-0.056,-0.0518,-0.0513,-0.0509,-0.0493,-0.0555,0,0,0,0,0,-0.037,-0.0365,-0.0385,-0.0377,-0.0381,-0.0408,-0.0414,-0.0429,-0.0447,-0.0455,-0.0476,-0.0498,-0.0514,-0.052,-0.0538,-0.0538,-0.0563,-0.0535,-0.0531,-0.0527,-0.0518,-0.0549,-0.0546,-0.0572,-0.0572,-0.0572,0,0,-0.0357,-0.0365,-0.0363,-0.0371,-0.0384,-0.038,-0.0412,-0.0415,-0.0412,-0.0457,-0.0457,-0.0485,-0.0513,-0.0516,-0.052,-0.0528,-0.0534,-0.0527,-0.0523,-0.0516,-0.0548,-0.0545,-0.0543,-0.0572,-0.0572,-0.0572,0,0,-0.0326,-0.0336,-0.0322,-0.0328,-0.0343,-0.0357,-0.0355,-0.0378,-0.0387,-0.0394,-0.0426,-0.0445,-0.0468,-0.0484,-0.0496,-0.0479,-0.0513,-0.0487,-0.0449,-0.0478,-0.0476,-0.0475,-0.0504,-0.0505,-0.0482,-0.0481,-0.0481,0,-0.0311,-0.0298,-0.0318,-0.0307,-0.0308,-0.0342,-0.0327,-0.0338,-0.0362,-0.0367,-0.0385,-0.0426,-0.045,-0.0456,-0.0452,-0.0468,-0.0493,-0.0463,-0.0472,-0.0471,-0.047,-0.0501,-0.0503,-0.0479,-0.0479,-0.0479,-0.048,0,-0.0273,-0.0263,-0.0254,-0.0252,-0.0253,-0.0246,-0.0264,-0.0267,-0.0288,-0.0307,-0.0322,-0.036,-0.0385,-0.0396,-0.0418,-0.0423,-0.0445,-0.0465,-0.0481,-0.0464,-0.0498,-0.0501,-0.0475,-0.0476,-0.0477,-0.0477,0,0,-0.024,-0.0228,-0.0226,-0.0218,-0.0225,-0.0222,-0.021,-0.0214,-0.0213,-0.0241,-0.0242,-0.0275,-0.0307,-0.0322,-0.0356,-0.0378,-0.0399,-0.0414,-0.0417,-0.0437,-0.0466,-0.0503,-0.0511,-0.0423,-0.0423,-0.0423,-0.0491,0,-0.0207,-0.0175,-0.0176,-0.0147,-0.0136,-0.0153,-0.0139,-0.0149,-0.017,-0.0179,-0.022,-0.0239,-0.0275,-0.0291,-0.0317,-0.038,-0.0405,-0.0379,-0.0484,-0.0487,-0.0518,-0.0515,-0.0441,-0.0497,-0.0495,-0.0496,-0.0496,0,-0.0177,-0.0158,-0.0124,-0.0103,-0.0098,-0.0083,-0.0078,-0.007,-0.0091,-0.011,-0.0136,-0.0176,-0.0208,-0.0247,-0.0333,-0.0316,-0.0382,-0.0432,-0.0437,-0.0492,-0.0531,-0.0515,-0.0504,-0.0502,-0.0502,-0.0501,-0.0501,0,-0.0162,-0.0126,-0.0098,-0.0091,-0.007,-0.0054,-0.0043,-0.0053,-0.0042,-0.007,-0.0074,-0.0127,-0.0155,-0.0233,-0.0334,-0.0337,-0.0436,-0.0458,-0.0553,-0.0557,-0.0523,-0.0524,-0.052,-0.052,-0.052,-0.052,-0.052,0,-0.014,-0.012,-0.0088,-0.0075,-0.0031,-0.0031,-0.0,0.0001,-0.0,0.0022,-0.0039,-0.0038,-0.0155,-0.0223,-0.0317,-0.0444,-0.0427,-0.0545,-0.0576,-0.0503,-0.0501,-0.053,-0.053,-0.0523,-0.0522,-0.0521,-0.0521,0,-0.0142,-0.0124,-0.0083,-0.0043,-0.0026,0.0002,0.0042,0.0066,0.0051,0.0079,0.0076,0.002,-0.0068,-0.019,-0.0326,-0.0427,-0.0543,-0.0594,-0.0503,-0.0523,-0.0648,-0.0644,-0.0706,-0.0708,-0.071,-0.0711,-0.0712,0,-0.0144,-0.0122,-0.0056,-0.0021,0.0,0.004,0.0078,0.0091,0.0124,0.0125,0.0153,0.007,0.0046,-0.0177,-0.0347,-0.0522,-0.0569,-0.062,-0.0618,-0.0642,-0.0667,-0.0661,-0.0655,-0.055,-0.0549,-0.0549,-0.0549,0,-0.0134,-0.0109,-0.007,0.0008,0.006,0.0117,0.0173,0.0219,0.0245,0.0279,0.0304,0.0282,0.0079,-0.0064,-0.0329,-0.0452,-0.0586,-0.0624,-0.0665,-0.0522,-0.0503,-0.0524,-0.0522,-0.0547,-0.0547,-0.0547,-0.0547,-0.0547,-0.0121,-0.0087,-0.0025,0.0054,0.0113,0.0203,0.0272,0.0385,0.0476,0.0604,0.0496,0.0519,0.0272,0.0005,-0.0263,-0.0558,-0.0562,-0.0654,-0.0651,-0.0649,-0.0627,-0.0612,-0.0672,-0.0673,-0.0674,-0.0675,-0.0675,0,-0.0047,-0.0039,0.0024,0.0125,0.024,0.023,0.0348,0.0481,0.0678,0.0767,0.0838,0.0659,0.0456,0.0135,-0.0272,-0.0544,-0.054,-0.0652,-0.0569,-0.0569,-0.057,-0.0541,-0.0565,-0.0566,-0.0566,-0.0567,0,0,-0.0017,0.0076,0.0119,0.0272,0.0311,0.0469,0.0556,0.0752,0.0873,0.1048,0.1068,0.1055,0.0592,0.0341,-0.0036,-0.0308,-0.038,-0.0362,-0.0417,-0.0275,-0.0272,-0.0536,-0.0488,0,0,0,0,0]}],[{"header":{"parameterUnit":"m.s-1","parameterCategory":2,"la1":30.2991,"la2":30.254,"lo1":-89.0895,"lo2":-89.0444,"dy":0.0017,"dx":0.0017,"nx":28,"ny":28,"refTime":"2024-09-24T21:00:00:Z","depth":"4","parameterNumber":2,"parameterNumberName":"U-component_of_CURRENTS"},"data":[0,0,0,0,0,0,0,0,0,0,0,0,0,0,0,0,0,0,0,0,0,0,0,0,0,0,0,0,0,0,0,0,0,0,0,0,0,0,0,0,0,0,0,0,0,0,0,0,0,0,0,0,0,0,0,0,0,0,0.1248,0.1249,0,0.1304,0.1305,0.1305,0.135,0.1351,0.1352,0.1352,0.1411,0.1412,0.1413,0,0,0,0,0,0,0,0,0,0,0,0,0,0.1167,0.1168,0.1248,0.1249,0.125,0.1304,0.1305,0.1306,0.135,0.1351,0.1352,0.1352,0.1411,0.1412,0.1413,0,0,0,0,0,0,0,0,0,0,0,0,0,0.1209,0.1169,0.1248,0.128,0.1284,0.1304,0.1305,0.1306,0.135,0.1351,0.1352,0.1353,0.141,0.1412,0.1413,0.1404,0,0,0.1418,0.1418,0,0,0,0,0,0,0,0,0.1207,0.1212,0.1274,0.1278,0.1282,0.1323,0.1298,0.1339,0.135,0.1323,0.1352,0.1353,0.1382,0.1386,0.1392,0.1406,0.1409,0.1418,0.1419,0.142,0.142,0,0,0,0,0,0,0,0.1204,0.121,0.1268,0.1275,0.128,0.1288,0.1295,0.1306,0.1345,0.1325,0.1329,0.1338,0.1384,0.139,0.1394,0.141,0.1418,0.1419,0.142,0.1421,0.1506,0.1507,0,0,0,0,0,0,0.12,0.1207,0.1267,0.127,0.1248,0.1289,0.1296,0.1307,0.1345,0.1352,0.1337,0.134,0.1387,0.1392,0.1396,0.1466,0.1419,0.1421,0.1422,0.1504,0.1506,0.1507,0,0,0,0,0,0,0.1198,0.1205,0.1264,0.1241,0.125,0.1289,0.1301,0.1308,0.1343,0.1355,0.1362,0.1369,0.1388,0.1394,0.1435,0.1465,0.1422,0.1423,0.1503,0.1505,0.1507,0.1555,0,0,0,0,0,0,0.1196,0.1204,0.1223,0.1241,0.1251,0.1295,0.1301,0.1308,0.1347,0.1352,0.1384,0.1389,0.139,0.1433,0.1436,0.1467,0.1424,0.1501,0.1504,0.1506,0.1551,0.1558,0.1564,0,0,0,0,0,0.1193,0.1211,0.1224,0.1232,0.1272,0.1296,0.1303,0.1332,0.1348,0.1366,0.1393,0.1389,0.1451,0.1435,0.1439,0.147,0.15,0.1503,0.1506,0.1549,0.1557,0.1564,0,0,0,0,0,0,0.1188,0.1218,0.1232,0.1261,0.1286,0.1305,0.1331,0.1347,0.1382,0.1396,0.1404,0.1411,0.1459,0.1457,0.1439,0.1503,0.1476,0.148,0.1507,0.1515,0.1521,0.1522,0.1425,0,0,0,0,0,0.1195,0.1219,0.1244,0.1271,0.1286,0.1313,0.1333,0.1352,0.1379,0.1397,0.142,0.1446,0.1469,0.1487,0.1505,0.1538,0.154,0.1562,0.1568,0.1573,0.1578,0.1602,0.1611,0.1517,0.1517,0.1517,0,0,0.1201,0.1222,0.1237,0.1273,0.1297,0.1323,0.1328,0.1367,0.1395,0.1396,0.1453,0.147,0.1483,0.1523,0.1544,0.153,0.1604,0.1577,0.1581,0.1583,0.1606,0.1615,0.1623,0.1519,0.1519,0.1519,0,0,0.1216,0.1246,0.1269,0.1293,0.1335,0.135,0.1367,0.1403,0.1431,0.1476,0.1488,0.1526,0.1562,0.1578,0.1588,0.1638,0.1636,0.165,0.1684,0.1708,0.1716,0.1723,0.1748,0.1756,0.1653,0.1653,0.1653,0,0.1225,0.1255,0.128,0.1308,0.1331,0.1365,0.1392,0.1422,0.147,0.1495,0.1504,0.1572,0.1585,0.1629,0.1652,0.1653,0.1668,0.1653,0.1716,0.1722,0.1729,0.1753,0.1762,0.1656,0.1656,0.1655,0.1655,0,0.1247,0.1283,0.1301,0.1345,0.1373,0.1405,0.1442,0.1485,0.1522,0.1548,0.1612,0.1633,0.1673,0.1686,0.1687,0.1741,0.1739,0.172,0.1695,0.1741,0.1764,0.1772,0.166,0.1659,0.1658,0.1657,0,0,0.1232,0.1302,0.1312,0.1338,0.1396,0.1417,0.1474,0.1525,0.1568,0.1619,0.1671,0.1718,0.1739,0.1752,0.1762,0.1785,0.1845,0.1779,0.1779,0.1801,0.1909,0.1817,0.1817,0.1842,0.1843,0.1844,0.1912,0,0.1243,0.1295,0.133,0.1383,0.1409,0.1459,0.1509,0.1563,0.1611,0.1672,0.1709,0.1763,0.1761,0.1792,0.1817,0.1843,0.1869,0.1829,0.1864,0.1865,0.1774,0.1824,0.1849,0.1918,0.192,0.1921,0.1922,0,0.1243,0.1281,0.1332,0.1403,0.1421,0.1461,0.1541,0.1595,0.168,0.1719,0.1777,0.181,0.1874,0.1855,0.1923,0.1903,0.1915,0.1923,0.1925,0.1825,0.1788,0.186,0.1937,0.1935,0.1934,0.1933,0.1932,0,0.1198,0.1277,0.1318,0.1341,0.1428,0.1469,0.1528,0.1613,0.1659,0.176,0.1798,0.1871,0.1921,0.1949,0.1986,0.1964,0.2048,0.2013,0.1938,0.1933,0.1973,0.1965,0.205,0.205,0.205,0.205,0.205,0,0.1171,0.1207,0.1307,0.1324,0.1386,0.146,0.1533,0.1598,0.169,0.1747,0.1827,0.1868,0.1949,0.2004,0.2015,0.2013,0.2076,0.1955,0.1944,0.1994,0.1987,0.198,0.1971,0.2052,0.2052,0.2051,0.2051,0,0.1102,0.1168,0.122,0.1325,0.1361,0.141,0.1526,0.1573,0.1675,0.175,0.1786,0.189,0.1966,0.2029,0.2091,0.2043,0.2052,0.2031,0.2104,0.2095,0.1911,0.1904,0.1945,0.1942,0.194,0.1938,0.1937,0,0.1065,0.1088,0.1204,0.1241,0.1291,0.1379,0.1434,0.155,0.159,0.1745,0.176,0.1882,0.1943,0.1951,0.203,0.2058,0.203,0.2024,0.194,0.1915,0.1902,0.1898,0.1894,0.1933,0.1932,0.1932,0.1931,0,0.0997,0.1054,0.1099,0.1177,0.124,0.13,0.1386,0.1403,0.1543,0.1643,0.1691,0.1745,0.1831,0.1883,0.1932,0.194,0.2021,0.1999,0.2002,0.1924,0.1901,0.1889,0.1888,0.1923,0.1924,0.1925,0.1926,0,0.0955,0.0973,0.1047,0.1105,0.1177,0.1206,0.1263,0.1317,0.1374,0.1534,0.1555,0.1689,0.1806,0.1824,0.1867,0.188,0.184,0.1769,0.1783,0.1793,0.1715,0.1662,0.161,0,0,0,0,0,0.0909,0.0926,0.0972,0.103,0.1094,0.1139,0.1223,0.128,0.1411,0.1401,0.147,0.1542,0.1618,0.1685,0.1669,0.1815,0.1856,0.179,0.1782,0.188,0.1889,0.1813,0,0,0,0,0,0,0.088,0.0922,0.0942,0.0953,0.0983,0.1039,0.1093,0.1179,0.117,0.1309,0.1345,0.1459,0.1541,0.1613,0.1642,0.1667,0.1633,0.1877,0.1874,0.1874,0.1883,0.189,0.1815,0,0,0,0,0]},{"header":{"parameterUnit":"m.s-1","parameterCategory":2,"la1":30.2991,"la2":30.254,"lo1":-89.0895,"lo2":-89.0444,"dy":0.0017,"dx":0.0017,"nx":28,"ny":28,"refTime":"2024-09-24T21:00:00:Z","depth":"4","parameterNumber":3,"parameterNumberName":"V-component_of_CURRENTS"},"data":[0,0,0,0,0,0,0,0,0,0,0,0,0,0,0,0,0,0,0,0,0,0,0,0,0,0,0,0,0,0,0,0,0,0,0,0,0,0,0,0,0,0,0,0,0,0,0,0,0,0,0,0,0,0,0,0,0,0,0.0152,0.0152,0,0.0111,0.011,0.011,0.0083,0.0082,0.0082,0.0082,0.0033,0.0032,0.0031,0,0,0,0,0,0,0,0,0,0,0,0,0,0.0187,0.0186,0.0153,0.0152,0.0151,0.0111,0.011,0.011,0.0083,0.0082,0.0082,0.0082,0.0033,0.0032,0.0031,0,0,0,0,0,0,0,0,0,0,0,0,0,0.0162,0.0186,0.0153,0.0133,0.013,0.0111,0.011,0.011,0.0083,0.0082,0.0082,0.0082,0.0034,0.0032,0.003,0.0026,0,0,0.0025,0.0025,0,0,0,0,0,0,0,0,0.0163,0.016,0.0136,0.0134,0.0131,0.0101,0.0104,0.0081,0.0083,0.0101,0.0082,0.0082,0.0055,0.0052,0.0045,0.0024,0.0022,0.0025,0.0024,0.0023,0.0023,0,0,0,0,0,0,0,0.0165,0.0162,0.0136,0.0136,0.0133,0.0118,0.0115,0.01,0.008,0.01,0.0097,0.0092,0.0054,0.0047,0.0044,0.0021,0.0025,0.0024,0.0023,0.0022,-0.0033,-0.0033,0,0,0,0,0,0,0.0171,0.0164,0.0138,0.0135,0.0147,0.0118,0.0114,0.0112,0.0081,0.0076,0.0093,0.0091,0.005,0.0046,0.0042,0.002,0.0023,0.0022,0.0021,-0.0033,-0.0033,-0.0034,0,0,0,0,0,0,0.0172,0.0169,0.0139,0.0148,0.0143,0.0118,0.0115,0.0111,0.0101,0.0076,0.007,0.0088,0.0049,0.0044,0.0026,0.0019,0.0021,0.002,-0.0032,-0.0033,-0.0033,-0.0014,0,0,0,0,0,0,0.0173,0.017,0.0171,0.0149,0.0143,0.013,0.0116,0.011,0.0099,0.0097,0.007,0.0065,0.0049,0.0028,0.0024,0.0016,0.0018,-0.0031,-0.0032,-0.0033,-0.0014,-0.0014,-0.0014,0,0,0,0,0,0.0175,0.0178,0.0171,0.0168,0.0145,0.013,0.0126,0.0107,0.0099,0.0097,0.0076,0.0065,0.0019,0.0027,0.0022,0.0013,-0.0031,-0.0032,-0.0033,-0.0014,-0.0014,-0.0014,0,0,0,0,0,0,0.0192,0.0175,0.0167,0.0164,0.0149,0.0125,0.0122,0.0109,0.0091,0.0088,0.0064,0.0058,0.0037,0.0023,0.0032,-0.0006,-0.0009,-0.0011,0.0007,0.0007,0.0007,0.0019,0.0017,0,0,0,0,0,0.0198,0.0196,0.0175,0.0173,0.0167,0.0145,0.0137,0.0123,0.0104,0.0096,0.0076,0.0052,0.0029,0.0017,-0.0003,-0.0019,-0.0035,-0.003,-0.003,-0.003,-0.0024,-0.0057,-0.0059,-0.0037,-0.0037,-0.0037,0,0,0.0204,0.0194,0.0193,0.0177,0.0164,0.0159,0.0139,0.0128,0.0122,0.0094,0.0079,0.0054,0.0025,0.0004,-0.0007,-0.0009,-0.0045,-0.0031,-0.003,-0.0025,-0.0059,-0.0061,-0.0063,-0.0038,-0.0038,-0.0038,0,0,0.0218,0.0207,0.0211,0.02,0.0183,0.0169,0.0167,0.0142,0.013,0.0112,0.0087,0.006,0.0029,0.0005,-0.0011,-0.0022,-0.0042,-0.0032,-0.0022,-0.0054,-0.0056,-0.0058,-0.0081,-0.0085,-0.0033,-0.0033,-0.0033,0,0.0227,0.0231,0.021,0.021,0.0207,0.0176,0.0181,0.0161,0.0133,0.0125,0.0111,0.0056,0.0029,0.0002,-0.0008,-0.0021,-0.0039,-0.0018,-0.0053,-0.0056,-0.0058,-0.008,-0.0085,-0.0032,-0.0032,-0.0032,-0.0033,0,0.0244,0.0247,0.0248,0.024,0.0231,0.0231,0.0203,0.0191,0.017,0.0147,0.0116,0.0074,0.0043,0.0022,0.0002,-0.0029,-0.0036,-0.0048,-0.005,-0.0059,-0.0082,-0.0087,-0.0031,-0.0031,-0.0032,-0.0032,0,0,0.0275,0.0264,0.0266,0.0278,0.0251,0.0253,0.0235,0.0219,0.0222,0.017,0.0165,0.0101,0.0074,0.0054,0.0019,-0.0016,-0.0054,-0.0038,-0.004,-0.0054,-0.0121,-0.0114,-0.012,-0.0073,-0.0074,-0.0074,-0.013,0,0.0301,0.0322,0.0299,0.0321,0.0336,0.0301,0.0297,0.0273,0.0245,0.0229,0.0164,0.0145,0.0087,0.0078,0.0027,-0.0028,-0.0067,-0.0038,-0.0116,-0.0118,-0.0106,-0.0125,-0.0077,-0.0134,-0.0135,-0.0136,-0.0137,0,0.0336,0.0347,0.0378,0.0388,0.039,0.0393,0.0394,0.0386,0.034,0.0312,0.0258,0.0213,0.0146,0.0107,-0.001,0.0011,-0.0054,-0.0103,-0.0106,-0.0109,-0.0122,-0.0126,-0.0146,-0.0146,-0.0145,-0.0144,-0.0144,0,0.0404,0.0409,0.0444,0.0445,0.0442,0.0451,0.0449,0.0419,0.0423,0.0372,0.0367,0.0268,0.0241,0.013,0.001,0.0002,-0.0109,-0.013,-0.0188,-0.0188,-0.0184,-0.0181,-0.0209,-0.0209,-0.0208,-0.0208,-0.0208,0,0.0457,0.049,0.0484,0.0507,0.0552,0.0525,0.0565,0.0537,0.0514,0.0523,0.0424,0.041,0.0246,0.0159,0.0034,-0.0093,-0.0097,-0.0187,-0.0204,-0.0175,-0.017,-0.0187,-0.0184,-0.021,-0.021,-0.0209,-0.0209,0,0.0537,0.0533,0.0578,0.0583,0.0591,0.0629,0.0644,0.0667,0.0632,0.064,0.0629,0.052,0.04,0.0237,0.007,-0.0038,-0.0169,-0.0211,-0.0158,-0.0171,-0.0232,-0.0227,-0.0282,-0.0282,-0.0282,-0.0282,-0.0283,0,0.0581,0.0613,0.0644,0.0672,0.0679,0.0724,0.0755,0.0731,0.0742,0.0709,0.0712,0.0613,0.0521,0.0292,0.0109,-0.0126,-0.0162,-0.023,-0.0251,-0.023,-0.0241,-0.0236,-0.0231,-0.0283,-0.0283,-0.0283,-0.0283,0,0.0656,0.0669,0.07,0.0756,0.0797,0.0844,0.0873,0.0885,0.0859,0.0841,0.0781,0.065,0.052,0.0311,0.0132,-0.004,-0.0191,-0.0233,-0.0234,-0.0255,-0.0232,-0.0242,-0.0237,-0.0284,-0.0284,-0.0284,-0.0284,0,0.0708,0.0741,0.0775,0.0819,0.0881,0.0921,0.0938,0.0933,0.0937,0.0872,0.0862,0.0702,0.0605,0.0358,0.0191,0.002,-0.0031,-0.0094,-0.0103,-0.0104,-0.0047,0.0009,0.0016,0,0,0,0,0,0.0741,0.0767,0.0824,0.0863,0.0928,0.0951,0.0991,0.0993,0.0972,0.0939,0.089,0.0761,0.0511,0.0406,0.0238,0.0178,-0.0063,-0.0027,-0.0141,-0.0289,-0.0288,-0.0251,0,0,0,0,0,0,0.0758,0.0813,0.0826,0.0889,0.0918,0.0982,0.1007,0.0995,0.0961,0.0922,0.0795,0.0718,0.0478,0.0607,0.0234,0.0183,0.0087,-0.0147,-0.015,-0.029,-0.0289,-0.0288,-0.025,0,0,0,0,0]}]]